Foehn-Box 4     en développement                      
EPHEMERIDE     (heures GMT)
Lever Zenith Coucher
5:17:0 11:26:3 17:34:17

Validation GPS le : 21-9-19 6:47  (GMT)

BATTERIE : 4.49      SOLAIRE : 4.88

SIGNAL : 36.42 ALTITUDE : 2212

FOEHN-BOX 4           Date :  19/09/2021   
Heure Vent
instant
Vent
moyen
Vent
mini
Vent
maxi
Direction
vent
Tempe
-rature
Pression
Humidite
16:50:48 0 0 0 0 -127.0 791.2 43.9
16:45:48 0 0 0 0 -127.0 791.2 43.1
16:40:48 0 0 0 0 -127.0 791.0 43.5
16:35:48 0 0 0 0 -127.0 791.1 42.9
16:30:48 0 0 0 0 -127.0 791.1 43.1
16:27:38 0 0 0 0 -127.0 791.3 42.8
15:55:51 0 0 0 0 -127.0 791.1 43.0
15:50:49 0 0 0 0 -127.0 791.2 42.9
15:45:48 0 0 0 0 -127.0 791.1 43.7
15:40:48 0 0 0 0 -127.0 791.2 42.8
15:35:48 0 0 0 0 -127.0 791.1 43.5
15:30:48 0 0 0 0 -127.0 791.0 43.5
15:25:49 0 0 0 0 -127.0 791.2 43.6
15:20:48 0 0 0 0 -127.0 790.9 43.7
15:15:48 0 0 0 0 -127.0 791.1 43.1
15:10:49 0 0 0 0 -127.0 791.0 43.5
15:05:48 0 0 0 0 -127.0 791.0 43.7
15:00:48 0 0 0 0 -127.0 791.2 44.1
14:55:49 0 0 0 0 -127.0 791.1 44.7
14:50:48 0 0 0 0 -127.0 791.2 44.6
14:45:48 0 0 0 0 -127.0 791.4 44.5
14:40:48 0 0 0 0 -127.0 791.3 44.6
14:35:48 0 0 0 0 -127.0 791.3 45.0